Горадиз

Азербайджан     39°26′50″N   47°20′12″E
темп.,
°C
ветер,
м/с
пор.,
м/с
влажн.,
%
обл.,
%
осадки,
мм/ч
давл.,
гПа
погр.,
м
28 февраля, вс
вс2800:30+6юз22610 0.0 101822
03:30+5зюз22610 0.0 101724
06:30+5зюз12620 0.0 101723
09:30+9зсз01490 0.0 1016188
12:30+12всв22410 0.0 1014794
15:30+14всв32400 0.0 1012896
18:30+10всв23540 0.0 101336
21:30+9зсз01580 0.0 101522
1 марта, пн
пн100:30+8з11590 0.0 101522
03:30+6ссв22670 0.0 101623
06:30+5с33790 0.0 101852
09:30+8ссв47700 0.0 1019729
12:30+7с577595 0.0 1020653
15:30+9ссв345896 0.0 1020898
18:30+7юв116690 0.0 102224
21:30+6в468694 0.0 1024339
2 марта, вт
вт200:30+4всв4794100 1.2 1025371
03:30+3св4695100 2.9 1025320
06:30+3св4596100 0.9 1026285
09:30+3св3596100 1.4 1027245
12:30+4всв3492100 0.2 1026293
15:30+5св2284100 0.2 1024378
18:30+4св128585 0.0 1024120
21:30+3зюз118750 0.0 102422
3 марта, ср
ср300:30+3юз22881 0.0 102332
03:30+3юз22841 0.0 102132
06:30+3юз238020 0.0 102143
09:30+7ююз236123 0.0 1020358
12:30+10св324714 0.0 10171197
15:30+11св43467 0.0 10151251
18:30+8св22500 0.0 101725
21:30+8ссв235019 0.0 102069
4 марта, чт
чт400:30+6с235489 0.0 102165
03:30+5всв115794 0.0 102322
06:30+4зюз225895 0.0 102522
09:30+7ююз444894 0.0 10271027
12:30+9юв334697 0.0 10261340
15:30+10всв434489 0.0 10251542
18:30+7всв477657 0.1 1025393
21:30+5с238463 0.2 102791